Showing default

SATELIOT_1, 60550

Orbit data source: Space-Track

SATELIOT_1, 60550 is a payload satellite owned by Sateliot (ES) in SSO that was launched on Fri, 16 Aug 2024 UTC via an FALCON 9 launch vehicle from the Air Force Western Test Range (AFWTR). Payload-class satellites include a variety of spacecraft equipped with specific instruments for various scientific and technological missions. These include communications satellites like Starlink; space stations such as the ISS; scientific satellites like the Hubble; Earth observation satellites from companies like Planet Labs, Umbra, and HawkEye 360; GPS; miniature CubeSats for education and research; and military/defense satellites.

Loading next visibility...
Identifier
60550, 2024-149CL
Orbit
SSO
Country
Flag of ESES / SPN
Related business
Manufacturer
Endurosat
Mission
Operational Commercial Communications
Bus & Motor
CUBESAT 6U, Unknown motor
Mass
7.407 kg wet, 7.407 kg dry
Launch date (UTC)
2024-08-16 (2 years ago)
Launch vehicle
FALCON 9
Launch site
Air Force Western Test Range (AFWTR)
Object type
Payload
Rocket body
Debris
Shape & HBR
Box + 2 Pan, 0.2 m
Radar Cross Section
0.092 m², Medium (>0.1 m² and < 1m²)

Expand to show TLE details & history
Last TLE update: 1 day ago

TLE from 1 day ago
0 SATELIOT_1
1 60550U 24149CL  26173.63724485  .00001749  00000-0  15265-3 0  9997
2 60550  97.6760 249.4448 0008299  64.4468 295.7611 14.98091637100884
Epoch: 2026-06-22T15:17Z
TLE epoch observation values (Epoch: 2026-06-22T15:17:37.955Z)
Latitude
-0.00005°
Longitude
109.21636°
Altitude
573.342 km
Speed
7.576 km/s
True Right ascension
16h 37m 46s
True Declination
0° 00' 00"
Sunlit
Object was in full shadow at epoch
Visualization orbit readout
Latitude
Unknown
Longitude
Unknown
Altitude
Unknown
Speed
Unknown
Apparent Right ascension
Unknown
Apparent Declination
Unknown
Sunlit
N/A
Visualization observer readout
Local Sidereal Time
10:52:07
Azimuth
Unknown
Elevation
Unknown
Doppler factor
Unknown
Orbital elements
Apogee altitude
575.566 km
Perigee altitude
564.034 km
Semi-major axis
6,947.937 km
Eccentricity
0.00083
Inclination
97.676°
RAAN
249.4448°
Arg. of periapsis
64.4468°
True anomaly
295.67541°
Mean anomaly
295.7611°
Eccentric anomaly
295.71826°
Mean motion
3.74765 °/min
Orbital period
96.06 mins
BSTAR
0.00015265
Loading maneuver chart data...
Computing Atmospheric mass density...
Loading historical data...
Loading historical data...
Loading historical data...
Loading historical data...
Loading historical data...
Loading historical data...
Loading historical data...

Documentation

Showing up to 5 results
|